SL-19 DEB, 23489

Orbit data source: Space-Track

SL-19 DEB, 23489 is space debris in LEO originally from a launch on Mon, 26 Dec 1994 UTC launched from the Tyuratam Missile And Space Complex (TTMTR). Debris objects in space refer to the collection of defunct objects orbiting the Earth. Examples of debris include non-operational satellites, rocket bodies, and fragments generated from explosions, collisions, or faulty payload assembly.

Loading next visibility...
Identifier
23489, 1994-085M
Orbit
LEO
Last TLE update
6 hours ago
Origin
Manufacturer
Unknown
Mission
Spacecraft
Bus & Motor
Unknown
Mass
Unknown
Launch date (UTC)
1994-12-26 (30 years ago)
Launch vehicle
Unknown
Launch site
Tyuratam Missile And Space Complex (TTMTR)
Object type
Payload
Rocket body
Debris
Shape & HBR
Unknown
Radar Cross Section
Medium (>0.1 m² and <1 m²)

Expand to show TLE details & history

TLE from 6 hours ago
0 SL-19 DEB
1 23489U 94085M   25128.96899723 -.00000906  00000-0 -23853-1 0  9992
2 23489  64.9320 317.8916 0186527 279.2007 237.1371 11.28942892250347
Epoch: 2025-05-08T23:15Z
Definitive object data (Epoch: 2025-05-08T23:15:21.36Z)
Latitude
22.92432°
Longitude
-89.33602°
Altitude
2,104.173 km
Speed
6.823 km/s
True Right ascension
08h 26m 08s
True Declination
22° 49' 15"
Sunlit
Object was in daylight at TLE epoch
Visualization TLE readout
Latitude
53.22635°
Longitude
140.16619°
Altitude
2,147.032 km
Speed
6.793 km/s
Apparent Right ascension
00h 27m 29s
Apparent Declination
15° 33' 17"
Sunlit
Object is in daylight
Visualization observer readout
Local Sidereal Time
13:12:45
Azimuth
13.107° NNE
Elevation
-33.536°
Doppler factor
1
Orbital elements
Apogee altitude
2,170.908 km
Perigee altitude
1,857.822 km
Semi-major axis
8,392.502 km
Eccentricity
0.0186527
Inclination
64.932°
RAAN
317.8916°
Arg. of periapsis
279.2007°
True anomaly
235.36443°
Mean anomaly
237.1371°
Eccentric anomaly
236.24851°
Mean motion
2.82297 °/min
BSTAR
-0.023853
Orbital period
127.53 mins
Loading maneuver chart data...
Loading SW <> Apogee altitude chart data...
Loading historical data...
Loading historical data...
Loading historical data...
Loading historical data...
Loading historical data...
Loading historical data...
Loading historical data...

SL-19 DEB Visibility forecast

Observer location: undefined°, undefined°

Span
Click to sort rows by Start time (UTC) header in descending order
Start Az.
Max El. time (UTC)
Max El. Az.
Max El.
End time (UTC)
End Az.
21 mins2025-05-09 13:16:09.085Z179.482° S2025-05-09 13:26:09.085Z113.293° SE37.875°2025-05-09 13:37:09.085Z40.532° NE
21 mins2025-05-09 15:29:09.085Z241.889° WSW2025-05-09 15:39:09.085Z319.227° NNW38.314°2025-05-09 15:50:09.085Z27.468° NE
17 mins2025-05-09 17:47:09.085Z299.948° NW2025-05-09 17:55:09.085Z345.228° N21.386°2025-05-09 18:04:09.085Z33.132° NE
17 mins2025-05-09 20:05:09.085Z333.597° NNW2025-05-09 20:13:09.085Z18.397° NNE22.802°2025-05-09 20:22:09.085Z69.219° E
22 mins2025-05-09 22:18:09.085Z332.642° NNW2025-05-09 22:29:09.085Z48.773° ENE40.954°2025-05-09 22:40:09.085Z128.188° SE
20 mins2025-05-10 00:31:09.085Z315.689° NNW2025-05-10 00:41:09.085Z252.848° W34.392°2025-05-10 00:51:09.085Z188.702° SSW
|